FENGYUN 1C DEB, 36258

Orbit data source: Space-Track

FENGYUN 1C DEB, 36258 is space debris in SSO originally from a launch on Mon, 10 May 1999 UTC launched from the Taiyaun Space Center, China (TSC). Fengyun 1C debris stems from the Chinese weather satellite Fengyun-1C, which was intentionally destroyed by a Chinese anti-satellite missile in 2007. This event dramatically increased the amount of space debris, with thousands of trackable fragments posing hazards to satellites and human spaceflight. The Fengyun 1C debris cloud has become a focal point in discussions about space sustainability and the need for international regulations to prevent the creation of new debris.

Loading next visibility...
Identifier
36258, 1999-025DWK
Orbit
SSO
Country
Flag of CNCN / PRC
Related business
Manufacturer
Unknown
Mission
Spacecraft
Bus & Motor
Unknown
Mass
Unknown
Launch date (UTC)
1999-05-10 (27 years ago)
Launch vehicle
Unknown
Launch site
Taiyaun Space Center, China (TSC)
Object type
Payload
Rocket body
Debris
Shape & HBR
Unknown shape, 0.1 m
Radar Cross Section
Small (<0.1 m²)

Expand to show TLE details & history
Last TLE update: 3 days ago

TLE from 3 days ago
0 FENGYUN 1C DEB
1 36258U 99025DWK 26226.41084442  .00001393  00000-0  16784-3 0  9999
2 36258  99.0580 290.5670 0170419  82.9028 279.1522 14.76090133944309
Epoch: 2026-08-14T09:51Z
TLE epoch observation values (Epoch: 2026-08-14T09:51:36.957Z)
Latitude
-0.00007°
Longitude
179.82656°
Altitude
627.636 km
Speed
7.554 km/s
True Right ascension
19h 22m 16s
True Declination
0° 00' 00"
Sunlit
Object was in full shadow at epoch
Visualization orbit readout
Latitude
Unknown
Longitude
Unknown
Altitude
Unknown
Speed
Unknown
Apparent Right ascension
Unknown
Apparent Declination
Unknown
Sunlit
N/A
Visualization observer readout
Local Sidereal Time
16:28:58
Azimuth
Unknown
Elevation
Unknown
Doppler factor
Unknown
Orbital elements
Apogee altitude
758.375 km
Perigee altitude
519.211 km
Semi-major axis
7,016.93 km
Eccentricity
0.01704
Inclination
99.058°
RAAN
290.567°
Arg. of periapsis
82.9028°
True anomaly
277.21802°
Mean anomaly
279.1522°
Eccentric anomaly
278.18572°
Mean motion
3.69252 °/min
Orbital period
97.49 mins
BSTAR
0.00016784
Loading maneuver chart data...
Computing Atmospheric mass density...
Loading historical data...
Loading historical data...
Loading historical data...
Loading historical data...
Loading historical data...
Loading historical data...
Loading historical data...

Documentation

Showing up to 5 results
|